Time,TemperatureF,DewpointF,PressureIn,WindDirection,WindDirectionDegrees,WindSpeedMPH,WindSpeedGustMPH,Humidity,HourlyPrecipIn,Conditions,Clouds,dailyrainin,SoftwareType,DateUTC
2013-06-25 00:00:00,67.3,65.2,29.80,WSW,257,0.0,6.0,93,0.00,,---,0.00,VWS V14.01,2013-06-25 05:00:00,
2013-06-25 00:30:00,66.7,64.9,29.79,WSW,243,0.0,4.0,94,0.00,,---,0.00,VWS V14.01,2013-06-25 05:30:00,
2013-06-25 01:00:00,66.3,64.5,29.80,SW,233,0.0,3.0,94,0.00,,---,0.00,VWS V14.01,2013-06-25 06:00:00,
2013-06-25 01:30:00,66.5,64.7,29.78,SW,233,0.0,0.0,94,0.00,,---,0.00,VWS V14.01,2013-06-25 06:30:00,
2013-06-25 02:00:00,66.7,64.9,29.77,NNE,32,0.0,6.0,94,0.00,,---,0.00,VWS V14.01,2013-06-25 07:00:00,
2013-06-25 02:30:00,67.0,65.5,29.82,North,355,8.0,19.0,95,0.46,,---,0.46,VWS V14.01,2013-06-25 07:30:00,
2013-06-25 03:00:00,66.5,65.3,29.82,NW,318,0.0,10.0,96,0.54,,---,0.54,VWS V14.01,2013-06-25 08:00:00,
2013-06-25 03:30:00,66.3,65.1,29.80,NW,318,0.0,0.0,96,0.61,,---,0.61,VWS V14.01,2013-06-25 08:30:00,
2013-06-25 04:00:00,65.9,64.7,29.80,South,184,0.0,0.0,96,0.27,,---,0.73,VWS V14.01,2013-06-25 09:00:00,
2013-06-25 04:30:00,65.0,64.1,29.81,SW,223,0.0,0.0,97,0.27,,---,0.81,VWS V14.01,2013-06-25 09:30:00,
2013-06-25 05:00:00,64.6,63.7,29.79,SSW,198,0.0,0.0,97,0.26,,---,0.87,VWS V14.01,2013-06-25 10:00:00,
2013-06-25 05:30:00,64.8,63.9,29.83,NW,315,0.0,0.0,97,0.18,,---,0.91,VWS V14.01,2013-06-25 10:30:00,
2013-06-25 06:00:00,64.6,63.7,29.79,NW,325,0.0,0.0,97,0.15,,---,0.96,VWS V14.01,2013-06-25 11:00:00,
2013-06-25 06:30:00,64.6,63.7,29.76,South,186,0.0,0.0,97,0.09,,---,0.96,VWS V14.01,2013-06-25 11:30:00,
2013-06-25 07:00:00,64.8,63.9,29.76,South,191,0.0,0.0,97,0.05,,---,0.96,VWS V14.01,2013-06-25 12:00:00,
2013-06-25 07:30:00,65.0,64.1,29.75,SSW,196,0.0,5.0,97,0.00,,---,0.96,VWS V14.01,2013-06-25 12:30:00,
2013-06-25 08:00:00,66.3,65.1,29.74,South,189,2.0,9.0,96,0.00,,---,0.96,VWS V14.01,2013-06-25 13:00:00,
2013-06-25 08:30:00,67.0,65.5,29.80,SSW,208,0.0,11.0,95,0.00,,---,0.96,VWS V14.01,2013-06-25 13:30:00,
2013-06-25 09:00:00,66.4,64.6,29.81,SW,227,6.0,19.0,94,0.17,,---,1.13,VWS V14.01,2013-06-25 14:00:00,
2013-06-25 09:30:00,65.1,63.6,29.82,WSW,241,0.0,15.0,95,0.43,,---,1.39,VWS V14.01,2013-06-25 14:30:00,
2013-06-25 10:00:00,65.0,63.5,29.78,NW,309,0.0,4.0,95,0.47,,---,1.43,VWS V14.01,2013-06-25 15:00:00,
2013-06-25 10:30:00,65.2,63.7,29.77,SSE,147,0.0,3.0,95,0.31,,---,1.44,VWS V14.01,2013-06-25 15:30:00,
2013-06-25 11:00:00,66.2,65.0,29.77,SSE,147,0.0,0.0,96,0.06,,---,1.45,VWS V14.01,2013-06-25 16:00:00,
2013-06-25 11:30:00,67.2,66.0,29.78,SE,132,0.0,4.0,96,0.02,,---,1.45,VWS V14.01,2013-06-25 16:30:00,
2013-06-25 12:00:00,69.6,67.8,29.78,SE,138,0.0,1.0,94,0.01,,---,1.45,VWS V14.01,2013-06-25 17:00:00,
2013-06-25 12:30:00,71.0,68.2,29.77,West,265,2.0,3.0,91,0.00,,---,1.45,VWS V14.01,2013-06-25 17:30:00,
2013-06-25 13:00:00,73.9,69.1,29.77,NW,308,0.0,6.0,85,0.00,,---,1.45,VWS V14.01,2013-06-25 18:00:00,
2013-06-25 13:30:00,75.1,69.2,29.75,SSW,211,5.0,9.0,82,0.00,,---,1.45,VWS V14.01,2013-06-25 18:30:00,
2013-06-25 14:00:00,76.5,69.5,29.75,SSW,199,1.0,10.0,79,0.00,,---,1.45,VWS V14.01,2013-06-25 19:00:00,
2013-06-25 14:30:00,78.7,70.1,29.74,WSW,251,0.0,9.0,75,0.00,,---,1.45,VWS V14.01,2013-06-25 19:30:00,
2013-06-25 15:00:00,78.6,70.0,29.74,WNW,294,6.0,9.0,75,0.00,,---,1.45,VWS V14.01,2013-06-25 20:00:00,
2013-06-25 15:30:00,77.9,70.1,29.74,NNW,346,0.0,8.0,77,0.00,,---,1.45,VWS V14.01,2013-06-25 20:30:00,
2013-06-25 16:00:00,78.1,71.1,29.73,NNW,339,0.0,6.0,79,0.00,,---,1.45,VWS V14.01,2013-06-25 21:00:00,
2013-06-25 16:30:00,78.3,71.3,29.72,NNW,339,0.0,0.0,79,0.00,,---,1.45,VWS V14.01,2013-06-25 21:30:00,
2013-06-25 17:00:00,79.1,70.9,29.70,NNW,339,0.0,0.0,76,0.00,,---,1.45,VWS V14.01,2013-06-25 22:00:00,
2013-06-25 17:30:00,79.2,71.4,29.70,NNW,339,0.0,0.0,77,0.00,,---,1.45,VWS V14.01,2013-06-25 22:30:00,
2013-06-25 18:00:00,78.8,71.0,29.71,NNW,339,0.0,0.0,77,0.00,,---,1.45,VWS V14.01,2013-06-25 23:00:00,
2013-06-25 18:30:00,78.2,71.5,29.72,NNW,339,0.0,0.0,80,0.00,,---,1.45,VWS V14.01,2013-06-25 23:30:00,
2013-06-25 19:00:00,77.0,69.6,29.71,SSE,159,0.0,5.0,78,0.00,,---,1.45,VWS V14.01,2013-06-26 00:00:00,
2013-06-25 19:30:00,74.5,68.7,29.72,ESE,116,0.0,4.0,82,0.00,,---,1.45,VWS V14.01,2013-06-26 00:30:00,
2013-06-25 20:00:00,72.8,67.3,29.71,SE,138,0.0,7.0,83,0.00,,---,1.45,VWS V14.01,2013-06-26 01:00:00,
2013-06-25 20:30:00,71.2,66.8,29.71,SE,132,0.0,6.0,86,0.00,,---,1.45,VWS V14.01,2013-06-26 01:30:00,
2013-06-25 21:00:00,70.3,66.6,29.72,SE,131,0.0,1.0,88,0.00,,---,1.45,VWS V14.01,2013-06-26 02:00:00,
2013-06-25 21:30:00,69.2,65.8,29.72,ESE,122,0.0,4.0,89,0.00,,---,1.45,VWS V14.01,2013-06-26 02:30:00,
2013-06-25 22:00:00,68.8,65.8,29.73,ESE,122,0.0,5.0,90,0.00,,---,1.45,VWS V14.01,2013-06-26 03:00:00,
2013-06-25 22:30:00,68.7,65.7,29.73,ESE,111,0.0,5.0,90,0.00,,---,1.45,VWS V14.01,2013-06-26 03:30:00,
2013-06-25 23:00:00,68.0,65.3,29.72,South,171,0.0,1.0,91,0.00,,---,1.45,VWS V14.01,2013-06-26 04:00:00,
2013-06-25 23:30:00,67.8,65.1,29.72,SSE,149,0.0,1.0,91,0.00,,---,1.45,VWS V14.01,2013-06-26 04:30:00,